Back to catalog

DMSP 5D-2 F15 DEB

AliveSSO
NORAD 25993·DEBRIS·🇺🇸 United States

Launched Dec 12, 1999 from Vandenberg Space Force Base

Loading…

Next Passes (next 24 hours)

TLE

FreshSource: Space-Track

Epoch: Sep 14, 2026, 11:25 UTC

1 25993U 99067C   26257.47591236  .00003138  00000-0  71885-3 0  9995
2 25993  98.3514 244.4965 0004425  44.9589 107.3792 14.56295867396952

Track DMSP 5D-2 F15 DEB in real time with AllMySat

Download on the App Store